Weather History for Carlsbad, NM

Change the Weather History Date:

Thursday, February 21, 2013

  Actual Average Record
Temperature  
Mean Temperature 47 °F -  
Max Temperature 57 °F 61 °F 93 °F (2011)
Min Temperature 37 °F 33 °F 17 °F (1955)
Degree Days  
Heating Degree Days 18    
Moisture  
Dew Point 18 °F    
Average Humidity 30    
Maximum Humidity 47    
Minimum Humidity 21    
Precipitation  
Precipitation 0.00 in - - ()
Sea Level Pressure  
Sea Level Pressure 29.71 in    
Wind  
Wind Speed 23 mph (WSW)    
Max Wind Speed 32 mph    
Max Gust Speed 44 mph    
Visibility 10 miles    
Events      
Averages and records for this station are not official NWS values.
T = Trace of Precipitation, MM = Missing Value Source: NWS Daily Summary

Daily Weather History Graph

Daily Weather History Graph

Search for Another Location

Airport:

Trip Planner

Search our weather history database for the weather conditions in past years. The results will help you decide how hot, cold, wet, or windy it might be!

Date:

Astronomy

Feb. 21, 2013 Rise Set
Actual Time 6:33 AM MST 5:48 PM MST
Civil Twilight 6:08 AM MST 6:13 PM MST
Nautical Twilight 5:39 AM MST 6:41 PM MST
Astronomical Twilight 5:11 AM MST 7:10 PM MST
Moon 2:13 PM MST (2/21) 3:30 AM MST (2/21)
Length of Visible Light 12h 04m
Length of Day
11h 15m
Waxing Gibbous, 84% of the Moon is Illuminated
Feb 21
Waxing Gibbous
Feb 25
Full
Mar 4
Last Quarter
Mar 11
New
Mar 19
First Quarter

Hourly Weather History & Observations

Time (MST) Temp. Windchill Dew Point Humidity Pressure Visibility Wind Dir Wind Speed Gust Speed Precip Events Conditions
12:53 AM 43.0 °F 32.5 °F 21.0 °F 42% 29.59 in 10.0 mi West 29.9 mph 40.3 mph N/A   Clear
5:53 AM 37.9 °F 27.1 °F 19.0 °F 47% 29.63 in 9.0 mi WSW 23.0 mph 35.7 mph N/A   Clear
6:53 AM 37.0 °F 26.4 °F 18.0 °F 46% 29.64 in 10.0 mi SW 20.7 mph 27.6 mph N/A   Clear
7:53 AM 41.0 °F 30.2 °F 18.0 °F 40% 29.68 in 10.0 mi WSW 27.6 mph 39.1 mph N/A   Clear
8:53 AM 45.0 °F 36.2 °F 19.0 °F 36% 29.67 in 10.0 mi WSW 24.2 mph 43.7 mph N/A   Clear
9:53 AM 48.9 °F - 18.0 °F 29% 29.70 in 10.0 mi West 23.0 mph 32.2 mph N/A   Clear
10:53 AM 51.1 °F - 18.0 °F 27% 29.70 in 10.0 mi West 32.2 mph 39.1 mph N/A   Clear
11:53 AM 55.0 °F - 19.0 °F 24% 29.70 in 10.0 mi West 26.5 mph 33.4 mph N/A   Clear
12:53 PM 57.0 °F - 19.0 °F 23% 29.69 in 10.0 mi West 20.7 mph 27.6 mph N/A   Clear
1:53 PM 57.0 °F - 18.0 °F 22% 29.67 in 10.0 mi WSW 18.4 mph 26.5 mph N/A   Clear
2:53 PM 57.9 °F - 19.0 °F 22% 29.67 in 10.0 mi West 27.6 mph 36.8 mph N/A   Clear
3:53 PM 57.0 °F - 17.1 °F 21% 29.67 in 10.0 mi WSW 25.3 mph 31.1 mph N/A   Clear
4:53 PM 55.0 °F - 15.1 °F 21% 29.71 in 10.0 mi West 13.8 mph 24.2 mph N/A   Clear
5:53 PM 52.0 °F - 14.0 °F 22% 29.72 in 10.0 mi West 10.4 mph - N/A   Clear
6:53 PM 51.1 °F - 12.9 °F 22% 29.77 in 10.0 mi West 16.1 mph - N/A   Clear
7:53 PM 50.0 °F - 16.0 °F 26% 29.78 in 10.0 mi WSW 24.2 mph - N/A   Clear
8:53 PM 48.0 °F - 17.1 °F 29% 29.81 in 10.0 mi Variable 6.9 mph - N/A   Clear
9:53 PM 46.9 °F - 18.0 °F 32% 29.81 in 10.0 mi West 12.7 mph - N/A   Clear
10:53 PM 44.1 °F 37.4 °F 19.9 °F 38% 29.82 in 10.0 mi West 13.8 mph - N/A   Clear
11:53 PM 46.0 °F 38.3 °F 16.0 °F 30% 29.80 in 10.0 mi West 20.7 mph 25.3 mph N/A   Clear